Le nostre stazioni meteo in Italia

Pubblicità
Il mio iltempo24.it
Reggio Calabria, Italia (16422): Temperatura & dewpoint: 10.12.2017 17:00:00 - 16.12.2017 17:00:00 (CET)Reggio Calabria, Italia (16422): velocità del vento: 10.12.2017 17:00:00 - 16.12.2017 17:00:00 (CET)Reggio Calabria, Italia (16422): direzione del vento: 10.12.2017 17:00:00 - 16.12.2017 17:00:00 (CET)Reggio Calabria, Italia (16422): visibility: 10.12.2017 17:00:00 - 16.12.2017 17:00:00 (CET)
Data & Tempo tt [°C] td [°C] ff [km/h] ff [kn] dd vv [km]
16.12.2017 17:00:00 14,0 10,0 18 10 N 10
16.12.2017 16:00:00 14,0 10,0 13 7 NNE 10
16.12.2017 15:00:00 14,0 10,0 18 10 N 10
16.12.2017 14:00:00 15,0 10,0 22 12 N 10
16.12.2017 13:00:00 17,0 10,0 15 8 NNE 10
16.12.2017 12:00:00 17,0 11,0 16 9 N 10
16.12.2017 11:00:00 16,0 10,0 15 8 N 10
16.12.2017 10:00:00 16,0 10,0 13 7 NNE 10
16.12.2017 09:00:00 16,0 10,0 15 8 NNE 10
16.12.2017 08:00:00 16,0 9,0 15 8 NE 10
16.12.2017 07:00:00 12,0 5,0 11 6 NE 10
16.12.2017 06:00:00 14,0 8,0 11 6 N 10
16.12.2017 05:00:00 - - - - - -
16.12.2017 04:00:00 - - - - - -
16.12.2017 03:00:00 - - - - - -
16.12.2017 02:00:00 - - - - - -
16.12.2017 01:00:00 - - - - - -
16.12.2017 00:00:00 12,0 3,0 9 5 E 10
15.12.2017 23:00:00 13,0 5,0 11 6 N 10
15.12.2017 22:00:00 16,0 6,0 8 4 SSE 10
15.12.2017 21:00:00 16,0 8,0 22 12 SE 10
15.12.2017 20:00:00 16,0 9,0 21 11 SSE 10
15.12.2017 19:00:00 16,0 9,0 28 15 SSE 10
15.12.2017 18:00:00 16,0 8,0 18 10 SE 10
15.12.2017 17:00:00 16,0 7,0 16 9 SE 10
15.12.2017 16:00:00 17,0 8,0 18 10 SSE 10
15.12.2017 15:00:00 17,0 8,0 18 10 SSE 10
15.12.2017 14:00:00 18,0 9,0 24 13 S 10
15.12.2017 13:00:00 17,0 9,0 24 13 SSO 10
15.12.2017 12:00:00 17,0 9,0 18 10 SSO 10
15.12.2017 11:00:00 16,0 8,0 5 3 SO 10
15.12.2017 10:00:00 15,0 9,0 8 4 N 10
15.12.2017 09:00:00 14,0 7,0 2 1 - 10
15.12.2017 08:00:00 9,0 4,0 11 6 ENE 10
15.12.2017 07:00:00 8,0 4,0 9 5 ENE 10
15.12.2017 06:00:00 9,0 4,0 5 3 ENE 10
15.12.2017 05:00:00 - - - - - -
15.12.2017 04:00:00 - - - - - -
15.12.2017 03:00:00 - - - - - -
15.12.2017 02:00:00 - - - - - -
15.12.2017 01:00:00 - - - - - -
15.12.2017 00:00:00 12,0 7,0 8 4 E 10
14.12.2017 23:00:00 12,0 6,0 8 4 NNE 10
14.12.2017 22:00:00 14,0 7,0 11 6 N 10
14.12.2017 21:00:00 15,0 6,0 9 5 NE 10
14.12.2017 20:00:00 14,0 6,0 11 6 ENE 10
14.12.2017 19:00:00 15,0 6,0 11 6 NNE 10
14.12.2017 18:00:00 15,0 6,0 11 6 NNE 10
14.12.2017 17:00:00 15,0 6,0 15 8 NNE 10
14.12.2017 16:00:00 15,0 6,0 21 11 N 10
14.12.2017 15:00:00 16,0 5,0 24 13 N 10
14.12.2017 14:00:00 16,0 5,0 21 11 N 10
14.12.2017 13:00:00 16,0 6,0 26 14 N 10
14.12.2017 12:00:00 16,0 7,0 24 13 N 10
14.12.2017 11:00:00 16,0 7,0 26 14 N 10
14.12.2017 10:00:00 15,0 7,0 28 15 N 10
14.12.2017 09:00:00 14,0 5,0 18 10 NNE 10
14.12.2017 08:00:00 14,0 5,0 21 11 N 10
14.12.2017 07:00:00 14,0 6,0 16 9 N 10
14.12.2017 06:00:00 14,0 6,0 22 12 N 10
14.12.2017 05:00:00 - - - - - -
14.12.2017 04:00:00 - - - - - -
14.12.2017 03:00:00 - - - - - -
14.12.2017 02:00:00 - - - - - -
14.12.2017 01:00:00 - - - - - -
14.12.2017 00:00:00 15,0 8,0 16 9 NNO 10
13.12.2017 23:00:00 15,0 9,0 15 8 N 10
13.12.2017 22:00:00 15,0 10,0 18 10 NNE 10
13.12.2017 21:00:00 15,0 11,0 18 10 NNE 10
13.12.2017 20:00:00 16,0 10,0 21 11 N 10
13.12.2017 19:00:00 17,0 10,0 21 11 NNE 10
13.12.2017 18:00:00 17,0 10,0 22 12 N 10
13.12.2017 17:00:00 17,0 10,0 15 8 N 10
13.12.2017 16:00:00 17,0 10,0 16 9 N 10
13.12.2017 15:00:00 18,0 9,0 22 12 NNE 10
13.12.2017 14:00:00 19,0 9,0 22 12 N 10
13.12.2017 13:00:00 19,0 9,0 13 7 N 10
13.12.2017 12:00:00 19,0 10,0 9 5 NO 10
13.12.2017 11:00:00 18,0 10,0 5 3 SSO 10
13.12.2017 10:00:00 18,0 5,0 4 2 - 10
13.12.2017 09:00:00 15,0 6,0 5 3 E 10
13.12.2017 08:00:00 11,0 3,0 11 6 NE 10
13.12.2017 07:00:00 11,0 3,0 9 5 NNE 10
13.12.2017 06:00:00 12,0 2,0 8 4 NNE 10
13.12.2017 05:00:00 - - - - - -
13.12.2017 04:00:00 - - - - - -
13.12.2017 03:00:00 - - - - - -
13.12.2017 02:00:00 - - - - - -
13.12.2017 01:00:00 - - - - - -
13.12.2017 00:00:00 16,0 8,0 18 10 SE 10
12.12.2017 23:00:00 16,0 8,0 18 10 SE 10
12.12.2017 22:00:00 16,0 8,0 18 10 SE 10
12.12.2017 21:00:00 16,0 9,0 21 11 SE 10
12.12.2017 20:00:00 16,0 10,0 18 10 SE 10
12.12.2017 19:00:00 16,0 10,0 22 12 SE 10
12.12.2017 18:00:00 17,0 11,0 16 9 SE 10
12.12.2017 17:00:00 17,0 12,0 18 10 SSE 10
12.12.2017 16:00:00 18,0 12,0 16 9 SSE 10
12.12.2017 15:00:00 19,0 12,0 18 10 S 10
12.12.2017 14:00:00 19,0 12,0 21 11 S 10
12.12.2017 13:00:00 19,0 11,0 22 12 SSE 10
12.12.2017 12:00:00 19,0 11,0 22 12 S 10
12.12.2017 11:00:00 19,0 10,0 26 14 SSE 10
12.12.2017 10:00:00 18,0 10,0 26 14 SSE 10
12.12.2017 09:00:00 17,0 10,0 28 15 SE 10
12.12.2017 08:00:00 16,0 9,0 28 15 SE 10
12.12.2017 07:00:00 15,0 9,0 22 12 SE 10
12.12.2017 06:00:00 16,0 9,0 29 16 SE 10
12.12.2017 05:00:00 - - - - - -
12.12.2017 04:00:00 - - - - - -
12.12.2017 03:00:00 - - - - - -
12.12.2017 02:00:00 - - - - - -
12.12.2017 01:00:00 - - - - - -
12.12.2017 00:00:00 16,0 11,0 28 15 SSE 10
11.12.2017 23:00:00 16,0 10,0 34 18 SSE 10
11.12.2017 22:00:00 16,0 10,0 26 14 SSE 10
11.12.2017 21:00:00 16,0 10,0 34 18 SE 10
11.12.2017 20:00:00 16,0 10,0 24 13 SSE 10
11.12.2017 19:00:00 17,0 11,0 28 15 SSE 10
11.12.2017 18:00:00 17,0 12,0 24 13 SSE 10
11.12.2017 17:00:00 17,0 12,0 26 14 SSE 10
11.12.2017 16:00:00 17,0 12,0 29 16 SSE 10
11.12.2017 15:00:00 18,0 11,0 31 17 SSE 10
11.12.2017 14:00:00 18,0 11,0 31 17 SSE 10
11.12.2017 13:00:00 18,0 11,0 31 17 SSE 10
11.12.2017 12:00:00 - - - - - -
11.12.2017 11:00:00 17,0 10,0 26 14 SSE 10
11.12.2017 10:00:00 15,0 10,0 29 16 SSE 10
11.12.2017 09:00:00 15,0 9,0 24 13 SSE 10
11.12.2017 08:00:00 14,0 9,0 15 8 SSE 10
11.12.2017 07:00:00 11,0 4,0 8 4 SE 10
11.12.2017 06:00:00 10,0 4,0 9 5 E 10
11.12.2017 05:00:00 - - - - - -
11.12.2017 04:00:00 - - - - - -
11.12.2017 03:00:00 - - - - - -
11.12.2017 02:00:00 - - - - - -
11.12.2017 01:00:00 - - - - - -
11.12.2017 00:00:00 11,0 4,0 15 8 ESE 10
10.12.2017 23:00:00 11,0 4,0 15 8 ESE 10
10.12.2017 22:00:00 10,0 4,0 11 6 E 10
10.12.2017 21:00:00 10,0 3,0 9 5 E 10
10.12.2017 20:00:00 10,0 3,0 13 7 E 10
10.12.2017 19:00:00 10,0 4,0 11 6 E 10
10.12.2017 18:00:00 11,0 5,0 5 3 E 10
10.12.2017 17:00:00 13,0 5,0 4 2 - 10

tt = Temperatura
td = dewpoint
ff = velocità del vento
dd = direzione del vento
vv = visibility

Stazioni seguenti

WeatherPro
AMSI
MeteoEarth